QPF
0.01 0.01 0.01 0.01 0.01 0.01 0.01 0.01 0.01 0.02 0.02 0.01 0.02 0.02 0.02 0.03 0.04 0.05 0.05 0.04 0.03 0.02 0.02 0.02 0.03 0.03 0.03 0.03 0.02 0.02 0.02 0.02 0.02 0.02 0.01 0.01 0.01 0.01 0.01 0.03 0.03 0.04 0.05
0.01 0.00 0.01 0.02 0.02 0.02 0.01 0.01 0.01 0.01 0.02 0.01 0.02 0.02 0.02 0.03 0.03 0.03 0.03 0.03 0.02 0.02 0.03 0.03 0.02 0.02 0.02 0.02 0.02 0.02 0.02 0.03 0.03 0.04 0.03 0.02 0.02 0.02 0.02 0.02 0.02 0.03 0.04
0.01 0.01 0.01 0.01 0.01 0.01 0.01 0.01 0.01 0.01 0.01 0.01 0.01 0.02 0.02 0.02 0.03 0.03 0.02 0.02 0.03 0.03 0.02 0.02 0.02 0.03 0.03 0.02 0.02 0.02 0.02 0.03 0.04 0.04 0.03 0.02 0.02 0.02 0.02 0.02 0.02 0.03 0.03
0.01 0.01 0.01 0.01 0.01 0.00 0.00 0.01 0.01 0.01 0.01 0.01 0.01 0.02 0.03 0.02 0.02 0.03 0.02 0.02 0.02 0.02 0.02 0.02 0.02 0.03 0.02 0.02 0.02 0.02 0.02 0.03 0.03 0.03 0.02 0.01 0.01 0.02 0.02 0.02 0.02 0.02 0.02
0.01 0.01 0.01 0.01 0.01 0.01 0.01 0.01 0.01 0.01 0.01 0.01 0.01 0.02 0.02 0.01 0.01 0.02 0.02 0.02 0.02 0.02 0.02 0.02 0.02 0.02 0.02 0.02 0.01 0.02 0.03 0.04 0.03 0.03 0.03 0.02 0.01 0.02 0.02 0.02 0.02 0.02 0.02
0.01 0.01 0.01 0.01 0.01 0.00 0.00 0.00 0.00 0.01 0.01 0.01 0.01 0.01 0.01 0.01 0.01 0.01 0.01 0.01 0.02 0.02 0.03 0.02 0.02 0.02 0.01 0.01 0.02 0.02 0.02 0.03 0.03 0.03 0.02 0.02 0.02 0.02 0.02 0.01 0.01 0.01 0.01
0.01 0.01 0.01 0.01 0.01 0.00 0.00 0.00 0.00 0.01 0.01 0.01 0.01 0.01 0.00 0.00 0.00 0.00 0.01 0.01 0.02 0.02 0.03 0.03 0.02 0.01 0.01 0.01 0.01 0.01 0.01 0.01 0.02 0.02 0.02 0.03 0.03 0.02 0.02 0.01 0.01 0.01 0.02
0.02 0.02 0.02 0.02 0.01 0.01 0.00 0.01 0.01 0.01 0.01 0.01 0.01 0.01 0.00 0.00 0.00 0.00 0.01 0.01 0.02 0.03 0.03 0.02 0.02 0.02 0.02 0.02 0.01 0.01 0.01 0.01 0.01 0.01 0.01 0.02 0.02 0.03 0.02 0.02 0.02 0.02 0.02
0.02 0.01 0.02 0.02 0.01 0.01 0.01 0.01 0.01 0.01 0.01 0.01 0.02 0.01 0.01 0.00 0.01 0.01 0.02 0.02 0.02 0.02 0.01 0.01 0.01 0.02 0.02 0.02 0.01 0.02 0.02 0.01 0.02 0.01 0.01 0.01 0.01 0.02 0.02 0.02 0.02 0.02 0.02
0.02 0.02 0.02 0.02 0.02 0.01 0.01 0.01 0.01 0.01 0.01 0.01 0.01 0.01 0.00 0.00 0.01 0.01 0.02 0.02 0.02 0.01 0.01 0.01 0.02 0.02 0.01 0.02 0.02 0.02 0.02 0.01 0.01 0.01 0.01 0.01 0.01 0.01 0.02 0.02 0.02 0.02 0.02
0.02 0.03 0.03 0.03 0.03 0.02 0.02 0.02 0.02 0.02 0.03 0.02 0.02 0.01 0.01 0.01 0.01 0.01 0.01 0.02 0.01 0.01 0.01 0.02 0.02 0.02 0.01 0.02 0.03 0.03 0.02 0.02 0.02 0.02 0.02 0.02 0.02 0.01 0.01 0.02 0.03 0.03 0.03
0.02 0.02 0.03 0.03 0.02 0.02 0.03 0.03 0.03 0.03 0.03 0.03 0.02 0.02 0.02 0.02 0.01 0.01 0.01 0.01 0.01 0.01 0.01 0.01 0.01 0.02 0.02 0.02 0.03 0.03 0.03 0.03 0.02 0.02 0.02 0.01 0.01 0.01 0.02 0.02 0.03 0.03 0.04
0.02 0.02 0.02 0.03 0.02 0.02 0.03 0.04 0.04 0.03 0.03 0.02 0.02 0.02 0.02 0.02 0.01 0.00 0.00 0.01 0.01 0.01 0.01 0.01 0.01 0.02 0.02 0.02 0.03 0.03 0.04 0.03 0.03 0.03 0.02 0.01 0.02 0.02 0.02 0.02 0.02 0.03 0.04
0.02 0.02 0.02 0.02 0.02 0.02 0.01 0.02 0.02 0.02 0.01 0.01 0.01 0.01 0.02 0.02 0.02 0.01 0.01 0.01 0.01 0.01 0.01 0.01 0.01 0.01 0.01 0.01 0.02 0.03 0.03 0.03 0.04 0.03 0.02 0.02 0.02 0.02 0.02 0.02 0.02 0.03 0.04
0.02 0.02 0.02 0.02 0.02 0.03 0.01 0.01 0.01 0.01 0.01 0.02 0.02 0.03 0.02 0.02 0.02 0.01 0.01 0.01 0.01 0.01 0.01 0.01 0.01 0.01 0.02 0.02 0.03 0.03 0.04 0.04 0.04 0.04 0.03 0.03 0.03 0.02 0.02 0.02 0.02 0.02 0.03
0.02 0.03 0.02 0.02 0.02 0.03 0.03 0.02 0.02 0.01 0.01 0.02 0.02 0.03 0.02 0.02 0.02 0.02 0.02 0.02 0.01 0.01 0.01 0.01 0.01 0.01 0.01 0.02 0.02 0.03 0.04 0.04 0.04 0.04 0.04 0.04 0.04 0.04 0.03 0.03 0.03 0.02 0.02
0.02 0.04 0.03 0.02 0.02 0.02 0.03 0.03 0.03 0.03 0.03 0.02 0.02 0.02 0.02 0.03 0.03 0.03 0.05 0.05 0.04 0.03 0.02 0.02 0.01 0.02 0.02 0.02 0.03 0.03 0.03 0.03 0.03 0.04 0.04 0.05 0.05 0.05 0.05 0.05 0.03 0.03 0.03
0.02 0.03 0.02 0.02 0.02 0.02 0.02 0.04 0.06 0.05 0.03 0.03 0.02 0.02 0.02 0.03 0.03 0.04 0.05 0.04 0.04 0.04 0.04 0.04 0.04 0.05 0.04 0.03 0.03 0.03 0.03 0.03 0.03 0.03 0.03 0.04 0.05 0.05 0.05 0.06 0.05 0.05 0.05
0.02 0.03 0.03 0.02 0.03 0.03 0.03 0.04 0.06 0.05 0.04 0.04 0.03 0.02 0.02 0.02 0.04 0.05 0.04 0.04 0.04 0.05 0.05 0.05 0.05 0.06 0.04 0.04 0.04 0.03 0.03 0.03 0.03 0.03 0.03 0.03 0.04 0.04 0.05 0.05 0.06 0.06 0.06
0.03 0.05 0.05 0.04 0.05 0.05 0.05 0.05 0.07 0.06 0.04 0.03 0.02 0.02 0.02 0.02 0.03 0.04 0.04 0.05 0.04 0.05 0.05 0.05 0.05 0.07 0.06 0.05 0.05 0.06 0.07 0.06 0.05 0.04 0.04 0.04 0.03 0.03 0.04 0.05 0.04 0.04 0.04
0.03 0.05 0.08 0.08 0.08 0.08 0.09 0.08 0.06 0.05 0.04 0.03 0.03 0.03 0.02 0.02 0.03 0.03 0.05 0.05 0.05 0.05 0.04 0.03 0.04 0.05 0.05 0.04 0.04 0.04 0.06 0.08 0.07 0.06 0.06 0.06 0.05 0.05 0.05 0.06 0.06 0.05 0.05
0.03 0.05 0.06 0.06 0.05 0.05 0.05 0.05 0.04 0.03 0.04 0.04 0.04 0.03 0.02 0.02 0.03 0.04 0.05 0.05 0.05 0.04 0.03 0.03 0.03 0.04 0.03 0.03 0.04 0.04 0.04 0.06 0.07 0.08 0.08 0.07 0.06 0.06 0.05 0.06 0.06 0.06 0.06
0.01 0.02 0.02 0.02 0.02 0.02 0.02 0.03 0.03 0.02 0.04 0.04 0.03 0.02 0.01 0.02 0.02 0.02 0.03 0.03 0.03 0.03 0.03 0.03 0.03 0.03 0.03 0.02 0.02 0.03 0.03 0.04 0.05 0.07 0.08 0.08 0.07 0.06 0.05 0.05 0.06 0.07 0.06
0.01 0.01 0.01 0.01 0.01 0.01 0.02 0.02 0.02 0.02 0.04 0.05 0.04 0.05 0.04 0.03 0.03 0.03 0.03 0.02 0.02 0.03 0.04 0.05 0.03 0.03 0.03 0.04 0.04 0.03 0.03 0.04 0.04 0.05 0.06 0.06 0.06 0.06 0.06 0.05 0.06 0.06 0.07
0.01 0.01 0.01 0.01 0.01 0.01 0.01 0.01 0.02 0.02 0.03 0.04 0.05 0.05 0.04 0.03 0.03 0.04 0.04 0.03 0.03 0.03 0.05 0.05 0.04 0.04 0.04 0.04 0.04 0.04 0.05 0.06 0.05 0.04 0.04 0.04 0.04 0.04 0.05 0.05 0.06 0.07 0.07
0.01 0.01 0.01 0.01 0.01 0.02 0.02 0.02 0.03 0.03 0.02 0.02 0.02 0.03 0.02 0.02 0.02 0.02 0.02 0.03 0.03 0.03 0.04 0.04 0.04 0.04 0.04 0.04 0.05 0.05 0.05 0.06 0.05 0.05 0.04 0.04 0.04 0.04 0.04 0.05 0.05 0.05 0.05
MSLP
1014.93 1015.40 1015.86 1016.27 1016.64 1016.94 1017.20 1017.43 1017.64 1017.83 1018.00 1018.15 1018.27 1018.32 1018.28 1018.16 1017.94 1017.64 1017.29 1016.92 1016.58 1016.30 1016.10 1015.99 1015.95 1015.96 1015.99 1015.97 1015.87 1015.66 1015.31 1014.82 1014.21 1013.51 1012.76 1012.00 1011.27 1010.62 1010.06 1009.61 1009.25 1008.98 1008.78
1014.65 1015.11 1015.58 1016.02 1016.43 1016.78 1017.08 1017.34 1017.55 1017.73 1017.88 1018.00 1018.08 1018.09 1018.03 1017.89 1017.68 1017.39 1017.06 1016.72 1016.40 1016.13 1015.94 1015.83 1015.79 1015.81 1015.84 1015.85 1015.80 1015.65 1015.37 1014.97 1014.43 1013.80 1013.10 1012.37 1011.64 1010.94 1010.31 1009.76 1009.29 1008.90 1008.58
1014.38 1014.84 1015.32 1015.80 1016.24 1016.62 1016.95 1017.22 1017.44 1017.60 1017.73 1017.81 1017.84 1017.83 1017.76 1017.63 1017.43 1017.19 1016.91 1016.62 1016.35 1016.12 1015.95 1015.84 1015.80 1015.81 1015.84 1015.85 1015.82 1015.70 1015.48 1015.14 1014.69 1014.13 1013.50 1012.81 1012.10 1011.40 1010.73 1010.11 1009.54 1009.03 1008.59
1014.08 1014.56 1015.07 1015.57 1016.03 1016.45 1016.79 1017.07 1017.28 1017.43 1017.52 1017.57 1017.59 1017.56 1017.49 1017.38 1017.23 1017.05 1016.84 1016.62 1016.42 1016.24 1016.11 1016.02 1015.97 1015.96 1015.96 1015.95 1015.90 1015.79 1015.60 1015.31 1014.93 1014.45 1013.89 1013.28 1012.62 1011.94 1011.26 1010.60 1009.96 1009.37 1008.82
1013.72 1014.24 1014.77 1015.29 1015.78 1016.21 1016.57 1016.85 1017.06 1017.19 1017.27 1017.30 1017.30 1017.27 1017.22 1017.15 1017.06 1016.95 1016.83 1016.70 1016.57 1016.46 1016.36 1016.29 1016.24 1016.20 1016.16 1016.11 1016.03 1015.90 1015.71 1015.45 1015.11 1014.71 1014.23 1013.70 1013.11 1012.48 1011.83 1011.17 1010.50 1009.84 1009.21
1013.27 1013.82 1014.39 1014.93 1015.44 1015.89 1016.26 1016.55 1016.75 1016.88 1016.96 1016.99 1016.99 1016.97 1016.95 1016.92 1016.89 1016.86 1016.82 1016.78 1016.74 1016.69 1016.64 1016.59 1016.53 1016.46 1016.38 1016.27 1016.14 1015.97 1015.77 1015.51 1015.21 1014.86 1014.46 1014.01 1013.51 1012.96 1012.36 1011.73 1011.07 1010.39 1009.71
1012.71 1013.31 1013.90 1014.47 1015.00 1015.46 1015.84 1016.14 1016.35 1016.50 1016.58 1016.62 1016.64 1016.64 1016.65 1016.67 1016.70 1016.73 1016.77 1016.82 1016.85 1016.87 1016.86 1016.84 1016.78 1016.68 1016.56 1016.40 1016.22 1016.00 1015.76 1015.50 1015.21 1014.90 1014.56 1014.18 1013.77 1013.30 1012.78 1012.21 1011.59 1010.92 1010.24
1012.04 1012.68 1013.31 1013.90 1014.44 1014.91 1015.31 1015.63 1015.86 1016.03 1016.13 1016.19 1016.23 1016.27 1016.30 1016.36 1016.43 1016.53 1016.63 1016.75 1016.85 1016.93 1016.97 1016.98 1016.93 1016.83 1016.68 1016.48 1016.24 1015.98 1015.70 1015.41 1015.12 1014.83 1014.53 1014.22 1013.87 1013.49 1013.06 1012.56 1012.01 1011.39 1010.73
1011.29 1011.97 1012.62 1013.23 1013.78 1014.27 1014.68 1015.02 1015.28 1015.47 1015.61 1015.70 1015.77 1015.83 1015.90 1015.98 1016.10 1016.23 1016.39 1016.55 1016.72 1016.85 1016.95 1017.00 1016.97 1016.89 1016.73 1016.51 1016.24 1015.94 1015.62 1015.30 1014.99 1014.70 1014.42 1014.14 1013.85 1013.54 1013.19 1012.78 1012.30 1011.76 1011.15
1010.48 1011.20 1011.87 1012.49 1013.04 1013.54 1013.96 1014.32 1014.61 1014.84 1015.01 1015.14 1015.25 1015.34 1015.44 1015.55 1015.69 1015.86 1016.05 1016.27 1016.47 1016.66 1016.82 1016.91 1016.93 1016.87 1016.73 1016.51 1016.22 1015.90 1015.55 1015.20 1014.87 1014.56 1014.27 1014.01 1013.76 1013.49 1013.21 1012.87 1012.48 1012.02 1011.49
1009.65 1010.39 1011.06 1011.68 1012.23 1012.73 1013.16 1013.54 1013.86 1014.13 1014.35 1014.53 1014.68 1014.81 1014.95 1015.09 1015.26 1015.46 1015.68 1015.92 1016.17 1016.41 1016.61 1016.75 1016.82 1016.80 1016.69 1016.50 1016.22 1015.89 1015.53 1015.16 1014.80 1014.46 1014.16 1013.89 1013.65 1013.41 1013.16 1012.89 1012.56 1012.18 1011.74
1008.80 1009.54 1010.21 1010.81 1011.36 1011.84 1012.29 1012.68 1013.04 1013.35 1013.63 1013.87 1014.08 1014.27 1014.45 1014.64 1014.85 1015.07 1015.32 1015.59 1015.87 1016.14 1016.38 1016.57 1016.69 1016.72 1016.65 1016.48 1016.23 1015.92 1015.56 1015.17 1014.79 1014.43 1014.11 1013.82 1013.57 1013.34 1013.11 1012.86 1012.59 1012.27 1011.90
1007.92 1008.65 1009.30 1009.88 1010.41 1010.88 1011.33 1011.75 1012.14 1012.51 1012.86 1013.18 1013.47 1013.74 1014.00 1014.24 1014.50 1014.76 1015.03 1015.32 1015.62 1015.91 1016.17 1016.39 1016.54 1016.61 1016.58 1016.46 1016.24 1015.95 1015.61 1015.24 1014.85 1014.48 1014.14 1013.83 1013.55 1013.31 1013.07 1012.84 1012.59 1012.31 1011.98
1006.99 1007.71 1008.33 1008.88 1009.38 1009.84 1010.29 1010.74 1011.18 1011.63 1012.06 1012.48 1012.88 1013.25 1013.59 1013.92 1014.23 1014.54 1014.84 1015.14 1015.44 1015.73 1016.00 1016.22 1016.38 1016.47 1016.47 1016.39 1016.21 1015.96 1015.65 1015.30 1014.94 1014.57 1014.22 1013.90 1013.60 1013.33 1013.08 1012.83 1012.57 1012.30 1011.99
1006.01 1006.69 1007.28 1007.80 1008.28 1008.74 1009.20 1009.68 1010.19 1010.72 1011.25 1011.79 1012.31 1012.80 1013.25 1013.67 1014.05 1014.40 1014.73 1015.04 1015.33 1015.59 1015.83 1016.03 1016.18 1016.27 1016.29 1016.23 1016.09 1015.89 1015.63 1015.33 1015.00 1014.67 1014.33 1014.01 1013.70 1013.41 1013.12 1012.84 1012.55 1012.25 1011.92
1004.95 1005.61 1006.17 1006.67 1007.14 1007.61 1008.10 1008.63 1009.20 1009.82 1010.47 1011.12 1011.77 1012.39 1012.96 1013.47 1013.93 1014.33 1014.67 1014.97 1015.23 1015.45 1015.64 1015.79 1015.91 1015.97 1015.99 1015.95 1015.86 1015.71 1015.51 1015.28 1015.02 1014.73 1014.43 1014.13 1013.82 1013.51 1013.19 1012.87 1012.53 1012.17 1011.79
1003.84 1004.48 1005.04 1005.54 1006.02 1006.51 1007.03 1007.62 1008.27 1008.98 1009.73 1010.50 1011.27 1012.00 1012.67 1013.28 1013.79 1014.23 1014.58 1014.86 1015.08 1015.24 1015.37 1015.47 1015.53 1015.57 1015.58 1015.56 1015.51 1015.42 1015.30 1015.15 1014.96 1014.75 1014.51 1014.24 1013.94 1013.62 1013.27 1012.89 1012.49 1012.06 1011.61
1002.71 1003.36 1003.93 1004.46 1004.97 1005.50 1006.08 1006.73 1007.45 1008.24 1009.07 1009.94 1010.79 1011.61 1012.36 1013.03 1013.59 1014.04 1014.39 1014.64 1014.81 1014.93 1015.00 1015.04 1015.06 1015.07 1015.08 1015.08 1015.08 1015.06 1015.03 1014.96 1014.87 1014.73 1014.55 1014.32 1014.04 1013.71 1013.33 1012.90 1012.43 1011.93 1011.39
1001.62 1002.30 1002.92 1003.50 1004.07 1004.67 1005.31 1006.01 1006.78 1007.62 1008.51 1009.42 1010.33 1011.19 1011.98 1012.67 1013.25 1013.70 1014.04 1014.26 1014.40 1014.47 1014.50 1014.51 1014.51 1014.52 1014.55 1014.59 1014.65 1014.70 1014.75 1014.78 1014.77 1014.71 1014.59 1014.39 1014.13 1013.78 1013.37 1012.89 1012.35 1011.77 1011.16
1000.62 1001.36 1002.06 1002.72 1003.37 1004.03 1004.73 1005.48 1006.28 1007.14 1008.04 1008.95 1009.85 1010.71 1011.49 1012.17 1012.73 1013.18 1013.50 1013.71 1013.83 1013.89 1013.92 1013.93 1013.95 1013.99 1014.06 1014.16 1014.29 1014.42 1014.55 1014.66 1014.72 1014.71 1014.63 1014.45 1014.19 1013.82 1013.37 1012.83 1012.23 1011.58 1010.91
999.77 1000.60 1001.39 1002.15 1002.88 1003.61 1004.36 1005.13 1005.93 1006.77 1007.64 1008.50 1009.35 1010.15 1010.88 1011.52 1012.05 1012.47 1012.78 1012.99 1013.13 1013.22 1013.28 1013.35 1013.43 1013.54 1013.69 1013.87 1014.08 1014.29 1014.49 1014.65 1014.75 1014.77 1014.70 1014.51 1014.21 1013.81 1013.30 1012.72 1012.06 1011.36 1010.63
999.12 1000.04 1000.93 1001.78 1002.59 1003.38 1004.15 1004.92 1005.70 1006.48 1007.27 1008.05 1008.80 1009.51 1010.16 1010.74 1011.23 1011.63 1011.94 1012.18 1012.37 1012.53 1012.67 1012.83 1013.01 1013.23 1013.48 1013.76 1014.06 1014.34 1014.59 1014.78 1014.89 1014.89 1014.78 1014.55 1014.19 1013.73 1013.16 1012.51 1011.81 1011.07 1010.31
998.67 999.68 1000.65 1001.57 1002.44 1003.26 1004.04 1004.78 1005.51 1006.21 1006.90 1007.57 1008.21 1008.82 1009.39 1009.89 1010.34 1010.73 1011.07 1011.37 1011.63 1011.89 1012.16 1012.44 1012.76 1013.11 1013.48 1013.86 1014.23 1014.56 1014.83 1015.02 1015.09 1015.04 1014.86 1014.55 1014.11 1013.56 1012.91 1012.21 1011.46 1010.69 1009.92
998.42 999.48 1000.50 1001.47 1002.37 1003.19 1003.95 1004.65 1005.30 1005.92 1006.51 1007.07 1007.61 1008.12 1008.61 1009.07 1009.50 1009.90 1010.28 1010.64 1011.01 1011.39 1011.79 1012.22 1012.68 1013.16 1013.64 1014.11 1014.54 1014.90 1015.16 1015.31 1015.32 1015.18 1014.90 1014.47 1013.92 1013.27 1012.55 1011.78 1011.00 1010.21 1009.45
998.35 999.41 1000.44 1001.41 1002.29 1003.10 1003.81 1004.46 1005.05 1005.59 1006.09 1006.57 1007.03 1007.48 1007.92 1008.36 1008.79 1009.22 1009.66 1010.11 1010.58 1011.08 1011.62 1012.18 1012.76 1013.35 1013.92 1014.45 1014.91 1015.27 1015.50 1015.58 1015.50 1015.25 1014.84 1014.29 1013.63 1012.87 1012.07 1011.25 1010.43 1009.65 1008.90
998.41 999.43 1000.42 1001.34 1002.18 1002.93 1003.60 1004.20 1004.73 1005.21 1005.67 1006.11 1006.54 1006.97 1007.40 1007.85 1008.31 1008.79 1009.29 1009.82 1010.39 1010.99 1011.63 1012.29 1012.96 1013.62 1014.24 1014.80 1015.25 1015.58 1015.75 1015.75 1015.56 1015.20 1014.67 1014.00 1013.22 1012.38 1011.50 1010.63 1009.80 1009.01 1008.29
Thickness
5792 5790 5787 5785 5783 5780 5777 5775 5773 5771 5769 5768 5766 5765 5763 5762 5761 5759 5758 5755 5752 5750 5748 5746 5744 5742 5741 5740 5738 5736 5733 5730 5722 5721 5719 5716 5711 5708 5705 5703 5702 5699 5697
5793 5790 5787 5785 5782 5780 5777 5775 5773 5770 5769 5767 5765 5763 5762 5761 5759 5757 5755 5753 5751 5748 5746 5744 5742 5741 5738 5737 5735 5733 5731 5728 5722 5716 5715 5711 5708 5705 5702 5700 5700 5698 5695
5792 5789 5785 5782 5780 5778 5776 5774 5772 5769 5767 5766 5763 5761 5759 5758 5756 5755 5753 5751 5749 5747 5745 5743 5741 5738 5735 5734 5732 5731 5729 5727 5722 5716 5713 5710 5706 5704 5700 5698 5696 5693 5692
5790 5787 5783 5781 5779 5777 5775 5773 5770 5768 5765 5763 5761 5759 5757 5755 5754 5752 5750 5748 5746 5744 5743 5741 5739 5737 5733 5731 5729 5727 5725 5723 5719 5715 5711 5707 5704 5700 5697 5695 5692 5691 5689
5786 5783 5780 5778 5776 5774 5772 5770 5768 5765 5764 5761 5759 5757 5755 5754 5752 5749 5747 5746 5743 5741 5740 5738 5737 5734 5731 5728 5728 5725 5722 5719 5717 5713 5709 5706 5701 5697 5695 5694 5691 5688 5686
5781 5778 5777 5774 5772 5770 5768 5766 5763 5761 5759 5757 5755 5754 5752 5752 5747 5743 5741 5742 5740 5737 5735 5734 5733 5730 5726 5723 5720 5718 5716 5715 5713 5710 5707 5703 5699 5697 5694 5691 5688 5684 5681
5776 5775 5773 5771 5767 5765 5764 5762 5759 5756 5754 5752 5751 5750 5748 5746 5741 5738 5735 5736 5736 5734 5732 5730 5731 5730 5724 5721 5716 5712 5710 5708 5706 5706 5704 5701 5698 5695 5691 5687 5684 5681 5679
5773 5771 5769 5766 5763 5761 5759 5756 5754 5753 5750 5748 5746 5746 5744 5741 5736 5733 5730 5731 5732 5730 5728 5726 5724 5723 5721 5716 5714 5711 5709 5707 5703 5701 5701 5699 5696 5692 5688 5684 5681 5677 5676
5769 5767 5765 5762 5758 5756 5753 5751 5750 5747 5746 5744 5743 5741 5738 5736 5731 5727 5724 5726 5726 5724 5723 5722 5720 5717 5713 5708 5708 5706 5704 5702 5699 5696 5694 5692 5689 5686 5683 5681 5677 5674 5672
5764 5762 5761 5757 5754 5751 5749 5747 5745 5743 5741 5740 5738 5736 5733 5731 5726 5722 5718 5722 5721 5719 5718 5716 5712 5710 5706 5702 5701 5700 5697 5697 5695 5692 5688 5686 5684 5682 5678 5676 5675 5672 5670
5760 5757 5754 5751 5748 5746 5744 5742 5739 5738 5736 5733 5732 5730 5728 5726 5721 5716 5713 5715 5716 5714 5714 5712 5710 5703 5699 5696 5694 5695 5693 5691 5690 5688 5686 5684 5682 5679 5677 5673 5671 5670 5668
5753 5750 5746 5744 5744 5743 5738 5735 5734 5731 5729 5727 5725 5723 5724 5721 5716 5711 5707 5705 5705 5706 5706 5707 5704 5696 5692 5690 5688 5687 5685 5682 5685 5684 5682 5681 5679 5677 5675 5672 5668 5665 5663
5744 5741 5739 5738 5737 5734 5731 5729 5728 5726 5725 5722 5720 5718 5717 5716 5712 5706 5702 5699 5697 5698 5700 5697 5693 5688 5686 5685 5682 5680 5678 5679 5680 5678 5678 5677 5676 5674 5671 5667 5664 5660 5657
5735 5733 5732 5730 5728 5726 5725 5724 5722 5721 5719 5716 5714 5712 5711 5709 5707 5703 5698 5695 5691 5691 5691 5689 5685 5683 5681 5680 5679 5677 5676 5676 5675 5674 5673 5673 5671 5668 5665 5663 5659 5656 5652
5726 5725 5725 5723 5722 5718 5717 5716 5714 5713 5712 5708 5708 5706 5703 5700 5697 5691 5689 5689 5687 5685 5682 5682 5682 5681 5680 5679 5677 5675 5673 5671 5669 5668 5667 5666 5664 5662 5660 5658 5654 5651 5647
5718 5717 5718 5717 5715 5713 5710 5708 5705 5703 5700 5697 5695 5693 5694 5691 5687 5683 5680 5678 5676 5673 5672 5676 5676 5675 5675 5674 5673 5671 5668 5666 5664 5662 5661 5659 5657 5655 5653 5651 5648 5646 5643
5709 5709 5709 5709 5707 5705 5703 5701 5698 5694 5690 5689 5687 5684 5682 5680 5677 5674 5672 5669 5667 5664 5666 5669 5669 5669 5668 5667 5666 5665 5663 5661 5658 5657 5655 5653 5652 5650 5648 5645 5643 5641 5638
5702 5701 5699 5698 5698 5697 5696 5693 5691 5689 5687 5686 5681 5676 5674 5670 5668 5665 5663 5660 5663 5661 5664 5664 5663 5662 5661 5660 5659 5658 5656 5654 5652 5650 5649 5648 5646 5644 5642 5639 5638 5635 5632
5693 5693 5691 5691 5690 5689 5688 5686 5684 5682 5681 5679 5677 5673 5667 5663 5659 5656 5654 5657 5660 5659 5659 5658 5658 5656 5654 5653 5652 5650 5648 5646 5644 5643 5643 5641 5640 5638 5636 5634 5631 5627 5625
5685 5682 5680 5681 5682 5681 5679 5677 5675 5673 5672 5670 5669 5667 5663 5658 5655 5653 5651 5653 5653 5654 5654 5652 5651 5649 5648 5646 5644 5642 5641 5640 5638 5636 5636 5635 5634 5632 5630 5628 5626 5624 5622
5678 5676 5671 5672 5673 5671 5669 5667 5665 5664 5663 5663 5661 5659 5652 5652 5651 5649 5648 5648 5647 5648 5648 5647 5645 5644 5642 5639 5638 5636 5634 5633 5632 5630 5630 5628 5626 5625 5623 5622 5621 5619 5616
5669 5668 5666 5664 5664 5663 5661 5659 5658 5657 5656 5655 5653 5651 5645 5646 5646 5644 5643 5643 5643 5643 5642 5640 5639 5638 5635 5633 5631 5630 5628 5626 5624 5623 5622 5622 5621 5619 5617 5616 5614 5612 5610
5659 5659 5658 5657 5655 5652 5651 5652 5651 5649 5648 5647 5647 5645 5642 5641 5640 5639 5638 5637 5636 5635 5635 5634 5632 5631 5628 5626 5624 5623 5621 5619 5617 5615 5614 5613 5612 5612 5611 5609 5607 5605 5603
5652 5651 5650 5649 5648 5648 5646 5644 5642 5641 5640 5640 5639 5637 5636 5634 5633 5632 5631 5630 5628 5627 5626 5624 5624 5623 5620 5618 5617 5616 5613 5610 5607 5606 5605 5605 5604 5604 5603 5603 5601 5599 5597
5644 5643 5642 5641 5640 5638 5637 5636 5634 5633 5632 5631 5630 5629 5628 5627 5626 5625 5624 5622 5620 5618 5617 5615 5614 5613 5612 5611 5609 5606 5603 5600 5597 5596 5596 5597 5597 5596 5596 5595 5594 5593 5591
5636 5635 5634 5633 5631 5630 5629 5628 5626 5625 5624 5623 5622 5621 5620 5619 5618 5617 5615 5614 5612 5611 5609 5608 5606 5605 5603 5602 5599 5596 5593 5592 5589 5587 5587 5588 5589 5589 5588 5588 5587 5586 5584